When you browse on this site, cookies collect data to enhance your experience and personalize the content and advertising you see.
Visit our Privacy Policy to learn more. By continuing to use the site, you agree to this use of cookies and data.
EN

Hourly Weather Nazaret

Today, 14 August, Friday

Time Temperature Precipitation Wind Pressure Humidity
00:00 +23°C° 0 mm 1 mps 723 mmHg 89%
01:00 +23°C° 0 mm 1 mps 723 mmHg 90%
02:00 +23°C° 0 mm 1 mps 723 mmHg 91%
03:00 +23°C° 0 mm 1 mps 723 mmHg 91%
04:00 +23°C° 0 mm 1 mps 723 mmHg 92%
05:00 +23°C° 0 mm 1 mps 723 mmHg 92%
06:00 +25°C° 0 mm 2 mps 723 mmHg 82%
07:00 +27°C° 0 mm 2 mps 723 mmHg 72%
08:00 +29°C° 0 mm 2 mps 723 mmHg 60%
09:00 +31°C° 0 mm 3 mps 724 mmHg 52%
10:00 +34°C° 0 mm 4 mps 724 mmHg 45%
11:00 +36°C° 0 mm 5 mps 724 mmHg 37%
12:00 +36°C° 0 mm 6 mps 723 mmHg 38%
13:00 +35°C° 0 mm 6 mps 723 mmHg 39%
14:00 +35°C° 0 mm 6 mps 723 mmHg 40%
15:00 +34°C° 0 mm 6 mps 723 mmHg 44%
16:00 +33°C° 0 mm 6 mps 723 mmHg 48%
17:00 +32°C° 0 mm 6 mps 723 mmHg 51%
18:00 +29°C° 0 mm 5 mps 722 mmHg 63%
19:00 +27°C° 0 mm 4 mps 722 mmHg 75%
20:00 +25°C° 0 mm 2 mps 722 mmHg 86%
21:00 +25°C° 0 mm 2 mps 722 mmHg 87%
22:00 +24°C° 0 mm 2 mps 722 mmHg 88%
23:00 +24°C° 0 mm 1 mps 722 mmHg 89%

Tomorrow, 15 August, Saturday

Time Temperature Precipitation Wind Pressure Humidity
00:00 +24°C° 0 mm 1 mps 722 mmHg 88%
01:00 +24°C° 0 mm 1 mps 722 mmHg 88%
02:00 +23°C° 0 mm 1 mps 721 mmHg 88%
03:00 +23°C° 0 mm 1 mps 722 mmHg 89%
04:00 +23°C° 0 mm 1 mps 722 mmHg 90%
05:00 +23°C° 0 mm 1 mps 722 mmHg 91%
06:00 +25°C° 0 mm 2 mps 722 mmHg 81%
07:00 +27°C° 0 mm 2 mps 722 mmHg 72%
08:00 +29°C° 0 mm 3 mps 722 mmHg 63%
09:00 +31°C° 0 mm 3 mps 723 mmHg 53%
10:00 +34°C° 0 mm 4 mps 723 mmHg 43%
11:00 +36°C° 0 mm 5 mps 723 mmHg 34%
12:00 +36°C° 0 mm 6 mps 723 mmHg 33%
13:00 +36°C° 0 mm 6 mps 722 mmHg 33%
14:00 +36°C° 0 mm 7 mps 722 mmHg 33%
15:00 +35°C° 0 mm 7 mps 722 mmHg 38%
16:00 +34°C° 0 mm 6 mps 722 mmHg 43%
17:00 +32°C° 0 mm 6 mps 722 mmHg 48%
18:00 +29°C° 0 mm 5 mps 722 mmHg 59%
19:00 +27°C° 0 mm 4 mps 722 mmHg 70%
20:00 +25°C° 0 mm 2 mps 722 mmHg 81%
21:00 +25°C° 0 mm 2 mps 722 mmHg 83%
22:00 +24°C° 0 mm 2 mps 721 mmHg 85%
23:00 +24°C° 0 mm 1 mps 721 mmHg 87%

Day after tomorrow, 16 August, Sunday

Time Temperature Precipitation Wind Pressure Humidity
00:00 +23°C° 0 mm 1 mps 721 mmHg 88%
01:00 +23°C° 0 mm 1 mps 721 mmHg 88%
02:00 +23°C° 0 mm 1 mps 720 mmHg 89%
03:00 +23°C° 0 mm 1 mps 721 mmHg 89%
04:00 +22°C° 0 mm 1 mps 721 mmHg 90%
05:00 +22°C° 0 mm 1 mps 721 mmHg 90%
06:00 +24°C° 0 mm 1 mps 721 mmHg 81%
07:00 +27°C° 0 mm 2 mps 722 mmHg 71%
08:00 +29°C° 0 mm 2 mps 722 mmHg 61%
09:00 +31°C° 0 mm 3 mps 722 mmHg 51%
10:00 +34°C° 0 mm 4 mps 723 mmHg 42%
11:00 +36°C° 0 mm 5 mps 723 mmHg 32%
12:00 +36°C° 0 mm 5 mps 723 mmHg 32%
13:00 +36°C° 0 mm 6 mps 723 mmHg 32%
14:00 +36°C° 0 mm 6 mps 722 mmHg 32%
15:00 +35°C° 0 mm 6 mps 722 mmHg 38%
16:00 +33°C° 0 mm 6 mps 722 mmHg 43%
17:00 +32°C° 0 mm 6 mps 722 mmHg 49%
18:00 +29°C° 0 mm 4 mps 722 mmHg 61%
19:00 +27°C° 0 mm 3 mps 722 mmHg 72%
20:00 +24°C° 0 mm 1 mps 722 mmHg 84%
21:00 +24°C° 0 mm 1 mps 722 mmHg 84%
22:00 +23°C° 0 mm 1 mps 722 mmHg 84%
23:00 +23°C° 0 mm 1 mps 722 mmHg 84%

17 August, Monday

Time Temperature Precipitation Wind Pressure Humidity
00:00 +23°C° 0 mm 1 mps 722 mmHg 84%
01:00 +22°C° 0 mm 1 mps 721 mmHg 83%
02:00 +20°C° 0 mm 0 mps 721 mmHg 83%
03:00 +22°C° 0 mm 1 mps 721 mmHg 83%
04:00 +22°C° 0 mm 1 mps 722 mmHg 83%
05:00 +22°C° 0 mm 1 mps 722 mmHg 83%
06:00 +24°C° 0 mm 1 mps 722 mmHg 74%
07:00 +27°C° 0 mm 2 mps 723 mmHg 65%
08:00 +29°C° 0 mm 2 mps 723 mmHg 55%
09:00 +31°C° 0 mm 3 mps 723 mmHg 47%
10:00 +34°C° 0 mm 3 mps 723 mmHg 39%
11:00 +36°C° 0 mm 4 mps 723 mmHg 31%
12:00 +36°C° 0 mm 5 mps 723 mmHg 30%
13:00 +37°C° 0 mm 5 mps 723 mmHg 30%
14:00 +38°C° 0 mm 6 mps 723 mmHg 29%
15:00 +35°C° 0 mm 6 mps 723 mmHg 35%
16:00 +33°C° 0 mm 5 mps 723 mmHg 41%
17:00 +32°C° 0 mm 5 mps 722 mmHg 47%
18:00 +28°C° 0 mm 4 mps 722 mmHg 58%
19:00 +26°C° 0 mm 2 mps 723 mmHg 68%
20:00 +24°C° 0 mm 1 mps 723 mmHg 79%
21:00 +23°C° 0 mm 1 mps 723 mmHg 79%
22:00 +23°C° 0 mm 1 mps 722 mmHg 79%
23:00 +20°C° 0 mm 0 mps 722 mmHg 79%

18 August, Tuesday

Time Temperature Precipitation Wind Pressure Humidity
00:00 +22°C° 0 mm 1 mps 722 mmHg 79%
01:00 +22°C° 0 mm 1 mps 722 mmHg 79%
02:00 +21°C° 0 mm 1 mps 722 mmHg 79%
03:00 +21°C° 0 mm 1 mps 722 mmHg 81%
04:00 +21°C° 0 mm 1 mps 722 mmHg 84%
05:00 +21°C° 0 mm 1 mps 722 mmHg 86%
06:00 +23°C° 0 mm 1 mps 722 mmHg 77%
07:00 +26°C° 0 mm 2 mps 723 mmHg 67%
08:00 +28°C° 0 mm 2 mps 723 mmHg 58%
09:00 +30°C° 0 mm 3 mps 723 mmHg 49%
10:00 +33°C° 0 mm 3 mps 723 mmHg 41%
11:00 +35°C° 0 mm 4 mps 723 mmHg 33%
12:00 +35°C° 0 mm 5 mps 723 mmHg 34%
13:00 +35°C° 0 mm 6 mps 723 mmHg 36%
14:00 +35°C° 0 mm 7 mps 723 mmHg 37%
15:00 +34°C° 0 mm 6 mps 722 mmHg 42%
16:00 +32°C° 0 mm 5 mps 722 mmHg 46%
17:00 +30°C° 0 mm 5 mps 722 mmHg 51%
18:00 +28°C° 0 mm 4 mps 722 mmHg 61%
19:00 +26°C° 0 mm 3 mps 722 mmHg 71%
20:00 +24°C° 0 mm 2 mps 722 mmHg 81%
21:00 +23°C° 0 mm 2 mps 722 mmHg 83%
22:00 +23°C° 0 mm 1 mps 722 mmHg 84%
23:00 +23°C° 0 mm 1 mps 722 mmHg 86%

19 August, Wednesday

Time Temperature Precipitation Wind Pressure Humidity
00:00 +22°C° 0 mm 1 mps 722 mmHg 87%
01:00 +22°C° 0 mm 1 mps 721 mmHg 87%
02:00 +22°C° 0 mm 1 mps 721 mmHg 88%
03:00 +22°C° 0 mm 1 mps 721 mmHg 88%
04:00 +22°C° 0 mm 1 mps 721 mmHg 89%
05:00 +21°C° 0 mm 1 mps 721 mmHg 89%
06:00 +24°C° 0 mm 2 mps 722 mmHg 80%
07:00 +26°C° 0 mm 2 mps 722 mmHg 70%
08:00 +28°C° 0 mm 3 mps 723 mmHg 60%
09:00 +30°C° 0 mm 3 mps 723 mmHg 53%
10:00 +33°C° 0 mm 4 mps 723 mmHg 45%
11:00 +35°C° 0 mm 5 mps 723 mmHg 37%
12:00 +35°C° 0 mm 5 mps 723 mmHg 38%
13:00 +35°C° 0 mm 6 mps 722 mmHg 39%
14:00 +35°C° 0 mm 7 mps 722 mmHg 40%
15:00 +33°C° 0 mm 6 mps 722 mmHg 45%
16:00 +32°C° 0 mm 6 mps 721 mmHg 50%
17:00 +30°C° 0 mm 5 mps 721 mmHg 56%
18:00 +28°C° 0 mm 4 mps 721 mmHg 66%
19:00 +26°C° 0 mm 3 mps 721 mmHg 76%
20:00 +24°C° 0 mm 2 mps 721 mmHg 86%
21:00 +24°C° 0 mm 2 mps 721 mmHg 87%
22:00 +23°C° 0 mm 1 mps 721 mmHg 88%
23:00 +23°C° 0 mm 1 mps 721 mmHg 89%
Show more